| time (UTC) | temp C | wind direction | speed KPH | gust KPH | rain 1hr cm | rain 24hr cm | rain mn cm | humidity % | barometer mb |
| 20260503201617 | 9 | 335 | 0.0 | 0.0 | 0.00 | 0.00 | 0.00 | 76 | 1018.4 |
| 20260503194620 | 10 | 335 | 0.0 | 0.0 | 0.00 | 0.00 | 0.00 | 75 | 1018.1 |
| 20260503191610 | 11 | 335 | 0.0 | 0.0 | 0.00 | 0.00 | 0.00 | 71 | 1018.1 |
| 20260503184623 | 12 | 335 | 0.0 | 0.0 | 0.00 | 0.00 | 0.00 | 67 | 1017.9 |
| 20260503181636 | 13 | 335 | 0.0 | 0.0 | 0.00 | 0.00 | 0.00 | 63 | 1017.7 |
| 20260503174618 | 15 | 335 | 0.0 | 0.0 | 0.00 | 0.00 | 0.00 | 57 | 1017.8 |
| 20260503171616 | 16 | 337 | 0.0 | 1.6 | 0.00 | 0.00 | 0.00 | 55 | 1017.6 |
| 20260503160122 | 18 | 263 | 0.0 | 3.2 | 0.00 | 0.00 | 0.00 | 44 | 1017.7 |
| 20260503150115 | 17 | 256 | 0.0 | 4.8 | 0.00 | 0.00 | 0.00 | 48 | 1018.2 |
| 20260503140122 | 18 | 252 | 0.0 | 4.8 | 0.00 | 0.00 | 0.00 | 47 | 1018.1 |
| 20260503130117 | 20 | 257 | 3.2 | 12.9 | 0.00 | 0.00 | 0.00 | 49 | 1018.3 |
| 20260503100121 | 16 | 219 | 3.2 | 11.3 | 0.00 | 0.00 | 0.00 | 47 | 1019.3 |
| 20260503080122 | 14 | 346 | 0.0 | 4.8 | 0.00 | 0.00 | 0.00 | 57 | 1019.8 |
| 20260503071617 | 11 | 249 | 0.0 | 1.6 | 0.00 | 0.00 | 0.00 | 66 | 1019.8 |
| 20260503054614 | 3 | 249 | 0.0 | 0.0 | 0.00 | 0.00 | 0.00 | 90 | 1019.9 |
| 20260503053108 | 3 | 249 | 0.0 | 0.0 | 0.00 | 0.00 | 0.00 | 91 | 1019.8 |
| 20260503050113 | 2 | 249 | 0.0 | 0.0 | 0.00 | 0.00 | 0.00 | 91 | 1019.6 |
| 20260503043121 | 1 | 249 | 0.0 | 0.0 | 0.00 | 0.00 | 0.00 | 91 | 1019.7 |
| 20260503040119 | 1 | 249 | 0.0 | 0.0 | 0.00 | 0.00 | 0.00 | 91 | 1019.8 |
| 20260503034613 | 1 | 249 | 0.0 | 0.0 | 0.00 | 0.00 | 0.00 | 90 | 1019.8 |
| 20260503031616 | 1 | 249 | 0.0 | 0.0 | 0.00 | 0.00 | 0.00 | 90 | 1019.8 |
| 20260503024618 | 2 | 249 | 0.0 | 0.0 | 0.00 | 0.00 | 0.00 | 89 | 1019.9 |
| 20260503021619 | 2 | 249 | 0.0 | 0.0 | 0.00 | 0.00 | 0.00 | 89 | 1020.2 |
| 20260503020116 | 2 | 249 | 0.0 | 0.0 | 0.00 | 0.00 | 0.00 | 89 | 1020.2 |
| 20260503013112 | 2 | 249 | 0.0 | 0.0 | 0.00 | 0.00 | 0.00 | 89 | 1020.3 |
| 20260503011611 | 2 | 249 | 0.0 | 0.0 | 0.00 | 0.00 | 0.00 | 88 | 1020.5 |
| 20260503004615 | 2 | 249 | 0.0 | 0.0 | 0.00 | 0.00 | 0.00 | 89 | 1020.7 |
| 20260503003111 | 2 | 249 | 0.0 | 0.0 | 0.00 | 0.00 | 0.00 | 89 | 1020.7 |
| 20260503000118 | 3 | 249 | 0.0 | 0.0 | 0.00 | 0.00 | 0.00 | 88 | 1021.1 |
| 20260502233116 | 3 | 249 | 0.0 | 0.0 | 0.00 | 0.00 | 0.00 | 87 | 1021.3 |
| 20260502230113 | 3 | 249 | 0.0 | 1.6 | 0.00 | 0.00 | 0.00 | 88 | 1021.7 |
| 20260502224620 | 4 | 249 | 0.0 | 0.0 | 0.00 | 0.00 | 0.00 | 87 | 1021.6 |
| 20260502223112 | 4 | 249 | 0.0 | 0.0 | 0.00 | 0.00 | 0.00 | 86 | 1021.8 |
| 20260502220145 | 5 | 249 | 0.0 | 0.0 | 0.00 | 0.00 | 0.00 | 85 | 1022.0 |
| 20260502213120 | 5 | 249 | 0.0 | 0.0 | 0.00 | 0.00 | 0.00 | 85 | 1022.0 |
| 20260502211615 | 5 | 249 | 0.0 | 0.0 | 0.00 | 0.00 | 0.00 | 84 | 1022.0 |
| 20260502210111 | 6 | 249 | 0.0 | 0.0 | 0.00 | 0.00 | 0.00 | 83 | 1022.1 |